Mac Arthur, WV (25873)

5:57 AM EST on February 26, 2017 (GMT -0500)
Raleigh County Memorial | | Change Station

Elev 2503 ft 37.79 °N, 81.12 °W | Updated 6 minutes ago

Mostly Cloudy
Mostly Cloudy
25 °F
Feels Like 16 °F
N
9
Wind Variable Wind from WNW

Today
High -- | Low -- °F
--% Chance of Precip.
Yesterday
High -- | Low -- °F
Precip. -- in
Pressure 30.11 in
Visibility 10.0 miles
Clouds Overcast 3000 ft
Windchill 16 °F
Dew Point 14 °F
Humidity 63%
Rainfall 0.00 in
Snow Depth Not available.
7:00 AM 6:15 PM
Waning Crescent, 0% visible
METAR KBKW 261051Z AUTO 30008KT 10SM OVC030 M04/M10 A3003 RMK AO2 SLP196 T10391100
Pressure 30.11 in
Visibility 10.0 miles
Clouds Overcast 3000 ft
Windchill 16 °F
Dew Point 14 °F
Humidity 63%
Rainfall 0.00 in
Snow Depth Not available.
7:00 AM 6:15 PM
Waning Crescent, 0% visible
METAR KBKW 261051Z AUTO 30008KT 10SM OVC030 M04/M10 A3003 RMK AO2 SLP196 T10391100

Get Your Daily Forecast Email!

Thanks for signing up!

Be on the lookout for a verification email in your inbox.

You'll start receiving the daily forecast at 8 AM.

×

10-Day Weather Forecast

Almanac

Astronomy

Feb. 26, 2017 Rise Set
Actual Time
Civil Twilight
Nautical Twilight
Astronomical Twilight
Moon
Length of Visible Light
Length of Day
Tomorrow will be .
, % of the Moon is Illuminated

Today's Extremes

State Highs State Lows

Community

WunderPhotos

Upload Photos

1,962,540 photos uploaded!

WunderBlog® & News

Nearby

Air Quality

  Air Quality AQ Index Pollutant
Not available.

Snow Depth

Station Depth Elevation

Earthquake Activity

City Distance Mag. Time & Date
Minimum magnitude displayed is 2.5.

Coastal Water Temperatures

Place Temperature

Stations

Nearby Weather Stations

Station Location Temp. Windchill Dew Point Humidity Wind Precip. Elev Updated Type
                   

Watches & Warnings

There are currently no watches in effect.